Sharjah International Airport

Airport
ICAO code: 
OMSJ
IATA Code: 
SHJ
Summary
ICAO Region: 
MID
Location: 
Sharjah,
Serving: 
Sharjah
Elevation: 
111 ft
Coordinates: 
Aerial View: 
25° 19' 45.001" N, 55° 30' 58" E
Metar
Observation
OMSJ 240600Z 19003KT 150V230 CAVOK 18/09 Q1020 NOSIG
Station
Sharjah International Airport
Date/Time
2022-01-24 06:00:00
Wind direction
190°
Wind speed
03 kts
Lowest cloud amount
clouds and visibility OK
Temperature
18°C
Dew point
9°C
Humidity
55%
QNH
1020 hPa
Weather condition
n/a

Description

International airport serving the emirate of Sharjah.

Climatology

Hot Desert Climate (Köppen climate classification BWh) - Hot desert climates are typically found in the subtropics where there is unbroken sunshine for the whole year due to the stable descending air and high pressure, little or no precipitation. Maximum temperatures of 40°C to 45°C are not uncommon, particularly during the warmer months of the year.

Runways

Designator Length Width Surface Rops
12/30 4060 45 ASP Yes/Yes
Airport map: 
Aerial View: 

Accidents and Serious Incidents at or in the vicinity of OMSJ

SKYbrary Partners:

Safety knowledge contributed by: